TimeCDT,TemperatureF,Dew PointF,Humidity,Sea Level PressureIn,VisibilityMPH,Wind Direction,Wind SpeedMPH,Gust SpeedMPH,PrecipitationIn,Events,Conditions,WindDirDegrees,DateUTC
12:15 AM,19.4,17.6,93,30.05,2.0,SSE,15.0,-,N/A,Snow,Light Snow,160,2013-03-14 05:15:00
12:35 AM,19.4,17.6,93,30.06,5.0,South,15.0,-,N/A,Rain,Freezing Rain,170,2013-03-14 05:35:00
12:55 AM,19.4,17.6,93,30.06,3.0,South,12.7,-,N/A,Rain,Freezing Rain,170,2013-03-14 05:55:00
1:15 AM,19.4,19.4,100,30.05,5.0,SSE,12.7,-,N/A,Rain,Freezing Rain,160,2013-03-14 06:15:00
1:35 AM,21.2,19.4,93,30.05,5.0,South,12.7,-,N/A,Rain,Freezing Rain,170,2013-03-14 06:35:00
1:55 AM,21.2,19.4,93,30.05,10.0,SSE,12.7,-,N/A,,Overcast,160,2013-03-14 06:55:00
2:15 AM,21.2,19.4,93,30.06,10.0,SSE,10.4,-,N/A,,Overcast,160,2013-03-14 07:15:00
2:35 AM,21.2,19.4,93,30.05,10.0,SSE,11.5,-,N/A,,Overcast,160,2013-03-14 07:35:00
2:55 AM,23.0,19.4,86,30.05,10.0,South,9.2,-,N/A,,Overcast,170,2013-03-14 07:55:00
3:15 AM,23.0,19.4,86,30.05,10.0,South,10.4,-,N/A,,Overcast,170,2013-03-14 08:15:00
3:35 AM,23.0,21.2,93,30.04,9.0,South,10.4,-,N/A,,Overcast,170,2013-03-14 08:35:00
3:55 AM,23.0,21.2,93,30.05,8.0,South,6.9,-,N/A,,Overcast,170,2013-03-14 08:55:00
4:15 AM,23.0,21.2,93,30.05,8.0,South,6.9,-,N/A,,Overcast,180,2013-03-14 09:15:00
4:35 AM,23.0,21.2,93,30.05,8.0,South,5.8,-,N/A,,Overcast,170,2013-03-14 09:35:00
4:55 AM,23.0,19.4,86,30.05,7.0,South,4.6,-,N/A,,Overcast,180,2013-03-14 09:55:00
5:15 AM,21.2,19.4,93,30.05,7.0,Calm,Calm,-,N/A,,Overcast,0,2013-03-14 10:15:00
5:35 AM,19.4,19.4,100,30.05,6.0,Calm,Calm,-,N/A,,Overcast,0,2013-03-14 10:35:00
5:55 AM,21.2,19.4,93,30.05,5.0,Calm,Calm,-,N/A,,Overcast,0,2013-03-14 10:55:00
6:15 AM,19.4,19.4,100,30.04,5.0,South,6.9,-,N/A,,Overcast,170,2013-03-14 11:15:00
6:35 AM,19.4,17.6,93,30.05,4.0,South,4.6,-,N/A,,Overcast,190,2013-03-14 11:35:00
6:55 AM,15.8,15.8,100,30.03,0.8,South,10.4,-,N/A,,Overcast,180,2013-03-14 11:55:00
7:15 AM,14.0,14.0,100,30.05,0.2,SW,5.8,-,N/A,Fog,Light Freezing Fog,230,2013-03-14 12:15:00
7:35 AM,15.8,14.0,93,30.07,0.2,West,5.8,-,N/A,Fog,Light Freezing Fog,260,2013-03-14 12:35:00
7:55 AM,14.0,12.2,93,30.06,0.2,WSW,6.9,-,N/A,Fog,Light Freezing Fog,240,2013-03-14 12:55:00
8:15 AM,14.0,12.2,93,30.05,0.2,SSW,4.6,-,N/A,Fog,Light Freezing Fog,200,2013-03-14 13:15:00
8:35 AM,14.0,12.2,93,30.07,0.2,SW,5.8,-,N/A,Fog,Light Freezing Fog,220,2013-03-14 13:35:00
8:55 AM,12.2,10.4,92,30.09,0.8,West,6.9,-,N/A,,Overcast,270,2013-03-14 13:55:00
9:15 AM,10.4,8.6,92,30.08,2.5,SSW,4.6,-,N/A,,Scattered Clouds,210,2013-03-14 14:15:00
9:35 AM,12.2,10.4,92,30.08,5.0,SSW,3.5,-,N/A,,Clear,210,2013-03-14 14:35:00
9:55 AM,14.0,12.2,93,30.08,6.0,SW,5.8,-,N/A,,Clear,220,2013-03-14 14:55:00
10:15 AM,14.0,14.0,100,30.07,7.0,South,3.5,-,N/A,,Clear,190,2013-03-14 15:15:00
10:35 AM,15.8,15.8,100,30.06,6.0,Calm,Calm,-,N/A,,Clear,0,2013-03-14 15:35:00
10:55 AM,15.8,15.8,100,30.06,6.0,SSW,3.5,-,N/A,,Clear,200,2013-03-14 15:55:00
11:15 AM,15.8,15.8,100,30.07,7.0,SW,4.6,-,N/A,,Clear,220,2013-03-14 16:15:00
11:35 AM,17.6,15.8,93,30.06,7.0,SSW,5.8,-,N/A,,Clear,210,2013-03-14 16:35:00
11:55 AM,17.6,17.6,100,30.07,8.0,Calm,Calm,-,N/A,,Clear,0,2013-03-14 16:55:00
12:15 PM,19.4,17.6,93,30.06,8.0,Calm,Calm,-,N/A,,Clear,0,2013-03-14 17:15:00
12:35 PM,21.2,17.6,86,30.07,8.0,Calm,Calm,-,N/A,,Clear,0,2013-03-14 17:35:00
12:55 PM,24.8,19.4,80,30.07,8.0,NNW,5.8,-,N/A,,Clear,340,2013-03-14 17:55:00
1:15 PM,24.8,19.4,80,30.08,9.0,NNW,5.8,-,N/A,,Clear,340,2013-03-14 18:15:00
1:35 PM,24.8,19.4,80,30.08,9.0,North,5.8,-,N/A,,Clear,350,2013-03-14 18:35:00
1:55 PM,24.8,19.4,80,30.08,9.0,North,10.4,-,N/A,,Clear,360,2013-03-14 18:55:00
2:15 PM,26.6,19.4,74,30.08,10.0,North,11.5,-,N/A,,Clear,360,2013-03-14 19:15:00
2:35 PM,26.6,21.2,80,30.08,10.0,NNW,9.2,-,N/A,,Clear,340,2013-03-14 19:35:00
2:55 PM,26.6,21.2,80,30.08,10.0,North,12.7,-,N/A,,Clear,350,2013-03-14 19:55:00
3:15 PM,26.6,21.2,80,30.08,9.0,North,10.4,-,N/A,,Clear,360,2013-03-14 20:15:00
3:35 PM,26.6,19.4,74,30.07,9.0,NNW,10.4,-,N/A,,Clear,340,2013-03-14 20:35:00
3:55 PM,26.6,19.4,74,30.07,9.0,North,8.1,-,N/A,,Clear,350,2013-03-14 20:55:00
4:15 PM,26.6,19.4,74,30.07,8.0,North,10.4,-,N/A,,Clear,350,2013-03-14 21:15:00
4:35 PM,26.6,19.4,74,30.08,9.0,North,12.7,-,N/A,,Clear,350,2013-03-14 21:35:00
4:55 PM,24.8,19.4,80,30.09,8.0,North,17.3,-,N/A,,Clear,350,2013-03-14 21:55:00
5:15 PM,24.8,19.4,80,30.09,9.0,North,15.0,-,N/A,,Clear,350,2013-03-14 22:15:00
5:35 PM,24.8,19.4,80,30.10,9.0,North,16.1,21.9,N/A,,Clear,350,2013-03-14 22:35:00
5:55 PM,24.8,19.4,80,30.10,9.0,North,13.8,-,N/A,,Clear,350,2013-03-14 22:55:00
6:15 PM,24.8,17.6,74,30.10,10.0,North,16.1,-,N/A,,Clear,360,2013-03-14 23:15:00
6:35 PM,23.0,17.6,80,30.10,10.0,North,18.4,-,N/A,,Clear,350,2013-03-14 23:35:00
6:55 PM,23.0,17.6,80,30.12,9.0,North,18.4,23.0,N/A,,Clear,350,2013-03-14 23:55:00
7:15 PM,21.2,17.6,86,30.12,8.0,North,16.1,-,N/A,,Clear,350,2013-03-15 00:15:00
7:35 PM,19.4,17.6,93,30.13,9.0,North,15.0,21.9,N/A,,Clear,350,2013-03-15 00:35:00
7:55 PM,19.4,17.6,93,30.13,9.0,North,15.0,-,N/A,,Clear,350,2013-03-15 00:55:00
8:15 PM,19.4,15.8,86,30.12,10.0,North,13.8,-,N/A,,Clear,350,2013-03-15 01:15:00
8:35 PM,19.4,15.8,86,30.13,10.0,North,12.7,-,N/A,,Clear,350,2013-03-15 01:35:00
8:55 PM,19.4,15.8,86,30.14,10.0,North,12.7,-,N/A,,Clear,350,2013-03-15 01:55:00
9:15 PM,19.4,15.8,86,30.14,10.0,North,13.8,-,N/A,,Clear,350,2013-03-15 02:15:00
9:35 PM,19.4,15.8,86,30.15,10.0,North,15.0,-,N/A,,Clear,350,2013-03-15 02:35:00
9:55 PM,17.6,15.8,93,30.15,10.0,NNW,12.7,-,N/A,,Clear,340,2013-03-15 02:55:00
10:15 PM,19.4,15.8,86,30.14,10.0,North,13.8,-,N/A,,Clear,350,2013-03-15 03:15:00
10:35 PM,19.4,15.8,86,30.14,10.0,North,16.1,-,N/A,,Clear,350,2013-03-15 03:35:00
10:55 PM,19.4,15.8,86,30.15,10.0,North,15.0,-,N/A,,Clear,350,2013-03-15 03:55:00
11:15 PM,19.4,15.8,86,30.15,10.0,North,16.1,-,N/A,,Clear,360,2013-03-15 04:15:00
11:35 PM,19.4,14.0,80,30.15,10.0,North,17.3,-,N/A,,Mostly Cloudy,360,2013-03-15 04:35:00
11:55 PM,19.4,14.0,80,30.15,10.0,North,15.0,-,N/A,,Overcast,360,2013-03-15 04:55:00